OM1PU-6 Weather Reports


time (UTC)temp
C
wind
direction
speed
KPH
gust
KPH
rain 1hr
cm
rain 24hr
cm
rain mn
cm
humidity
%
barometer
mb
20260507210318 13 292 1.6 6.4 0.00 0.00 0.00 80 1026.1
20260507204818 14 305 3.2 12.9 0.00 0.00 0.00 80 1026.1
20260507203319 14 162 0.0 6.4 0.00 0.00 0.00 79 1026.1
20260507201819 14 317 1.6 6.4 0.00 0.00 0.00 80 1025.9
20260507200318 14 153 1.6 12.9 0.00 0.00 0.00 79 1026.0
20260507194818 15 266 0.0 6.4 0.00 0.00 0.00 76 1026.1
20260507193318 15 207 0.0 6.4 0.00 0.00 0.00 74 1025.9
20260507191819 15 300 3.2 19.3 0.00 0.00 0.00 72 1025.8
20260507190319 15 317 3.2 19.3 0.00 0.00 0.00 73 1025.3
20260507184818 15 302 4.8 25.7 0.00 0.00 0.00 72 1025.4
20260507183318 16 251 0.0 6.4 0.00 0.00 0.00 72 1025.2
20260507181818 16 281 1.6 6.4 0.00 0.00 0.00 69 1025.3
20260507180318 17 290 3.2 12.9 0.00 0.00 0.00 67 1024.8
20260507174819 17 273 0.0 0.0 0.00 0.00 0.00 61 1024.3
20260507173318 18 257 0.0 0.0 0.00 0.00 0.00 60 1024.2
20260507171818 18 262 0.0 0.0 0.00 0.00 0.00 59 1024.3
20260507170319 18 242 0.0 0.0 0.00 0.00 0.00 56 1024.1
20260507164818 19 260 1.6 6.4 0.00 0.00 0.00 55 1024.1
20260507163319 19 218 0.0 0.0 0.00 0.00 0.00 52 1024.0
20260507161818 19 202 0.0 0.0 0.00 0.00 0.00 51 1023.8
20260507160319 19 248 0.0 6.4 0.00 0.00 0.00 50 1023.9
20260507154818 20 243 0.0 0.0 0.00 0.00 0.00 50 1023.9
20260507153319 20 232 0.0 0.0 0.00 0.00 0.00 48 1024.0
20260507151818 20 277 1.6 6.4 0.00 0.00 0.00 47 1023.9
20260507150319 20 253 0.0 0.0 0.00 0.00 0.00 49 1024.0
20260507144818 20 129 0.0 0.0 0.00 0.00 0.00 49 1024.0
20260507143318 20 250 0.0 0.0 0.00 0.00 0.00 50 1024.1
20260507141818 21 238 1.6 6.4 0.00 0.00 0.00 49 1024.2
20260507140318 21 295 0.0 0.0 0.00 0.00 0.00 48 1024.3
20260507134819 21 115 4.8 25.7 0.00 0.00 0.00 50 1024.3
20260507133318 20 264 1.6 12.9 0.00 0.00 0.00 51 1024.3
20260507131818 20 295 3.2 12.9 0.00 0.00 0.00 51 1024.5
20260507130319 20 281 0.0 0.0 0.00 0.00 0.00 49 1024.7
20260507124818 20 177 0.0 0.0 0.00 0.00 0.00 52 1024.4
20260507123319 20 118 1.6 12.9 0.00 0.00 0.00 52 1024.7
20260507121818 20 274 1.6 12.9 0.00 0.00 0.00 52 1024.7
20260507120318 20 115 1.6 12.9 0.00 0.00 0.00 52 1024.6
20260507114818 21 317 1.6 6.4 0.00 0.00 0.00 50 1024.4
20260507113318 20 4 1.6 12.9 0.00 0.00 0.00 48 1024.8
20260507111817 19 263 1.6 12.9 0.00 0.00 0.00 52 1024.8
20260507110318 19 272 1.6 12.9 0.00 0.00 0.00 53 1025.1
20260507104818 20 313 0.0 6.4 0.00 0.00 0.00 53 1025.1
20260507103319 20 315 3.2 19.3 0.00 0.00 0.00 53 1025.0
20260507101818 20 312 1.6 12.9 0.00 0.00 0.00 52 1024.9
20260507100318 19 247 3.2 12.9 0.00 0.00 0.00 53 1025.1
20260507094818 20 256 4.8 19.3 0.00 0.00 0.00 51 1025.4
20260507093317 20 312 6.4 25.7 0.00 0.00 0.00 52 1025.1
20260507091819 20 133 4.8 33.8 0.00 0.00 0.00 51 1025.0
20260507090318 19 297 3.2 25.7 0.00 0.00 0.00 56 1024.7
20260507084818 20 105 3.2 12.9 0.00 0.00 0.00 54 1024.7
20260507083318 18 304 4.8 25.7 0.00 0.00 0.00 56 1024.3
20260507081818 18 308 3.2 19.3 0.00 0.00 0.00 57 1024.4
20260507080318 18 272 0.0 6.4 0.00 0.00 0.00 59 1024.2
20260507074818 18 231 0.0 6.4 0.00 0.00 0.00 59 1024.1
20260507073317 17 277 1.6 6.4 0.00 0.00 0.00 60 1023.9
20260507071818 17 323 4.8 25.7 0.00 0.00 0.00 61 1023.8
20260507070317 17 280 1.6 19.3 0.00 0.00 0.00 62 1023.9
20260507064817 16 200 3.2 12.9 0.00 0.00 0.00 64 1023.7
20260507063318 16 247 1.6 6.4 0.00 0.00 0.00 65 1023.4
20260507061818 16 277 3.2 12.9 0.00 0.00 0.00 66 1023.2
20260507060317 16 264 3.2 19.3 0.00 0.00 0.00 67 1023.2
20260507054817 15 245 3.2 12.9 0.00 0.00 0.00 68 1023.1
20260507053318 15 313 4.8 25.7 0.00 0.00 0.00 69 1023.3
20260507051818 15 300 0.0 6.4 0.00 0.00 0.00 75 1023.0
20260507050318 15 279 0.0 0.0 0.00 0.00 0.00 74 1022.4
20260507044824 15 257 0.0 6.4 0.00 0.00 0.00 74 1022.3
20260507043317 15 250 1.6 12.9 0.00 0.00 0.00 76 1022.1
20260507041818 15 298 1.6 6.4 0.00 0.00 0.00 77 1021.8
20260507040317 15 283 0.0 6.4 0.00 0.00 0.00 78 1021.7
20260507034817 14 277 0.0 0.0 0.00 0.00 0.00 80 1021.7
20260507033318 14 273 0.0 0.0 0.00 0.00 0.00 80 1021.6
20260507031818 14 247 0.0 0.0 0.00 0.00 0.00 82 1021.7
20260507030318 13 264 0.0 0.0 0.00 0.00 0.00 83 1021.3
20260507024817 13 264 0.0 0.0 0.00 0.00 0.00 84 1021.4
20260507023318 13 275 0.0 0.0 0.00 0.00 0.00 85 1021.2
20260507021819 14 16 0.0 6.4 0.00 0.00 0.00 84 1020.9
20260507020317 15 266 0.0 0.0 0.00 0.00 0.00 83 1021.2
20260507014818 15 233 0.0 0.0 0.00 0.00 0.00 82 1021.0
20260507013318 15 242 0.0 0.0 0.00 0.00 0.00 82 1021.0
20260507011818 15 98 0.0 6.4 0.00 0.00 0.00 81 1020.7
20260507010318 15 159 0.0 0.0 0.00 0.00 0.00 80 1020.8
20260507004818 15 285 0.0 6.4 0.00 0.00 0.00 80 1020.8
20260507003319 15 259 1.6 6.4 0.00 0.00 0.00 78 1020.4
20260507001817 16 283 0.0 0.0 0.00 0.00 0.00 76 1020.3
20260507000318 16 83 1.6 12.9 0.00 0.00 0.00 75 1020.2
20260506234818 16 112 3.2 12.9 0.00 0.00 0.00 74 1020.2
20260506233317 16 106 4.8 33.8 0.00 0.00 0.00 73 1020.1
20260506231817 17 178 1.6 12.9 0.00 0.00 0.00 73 1019.9
20260506230317 17 89 1.6 12.9 0.00 0.00 0.00 72 1019.8
20260506224817 17 239 6.4 53.1 0.00 0.00 0.00 72 1019.9
20260506223318 17 358 6.4 33.8 0.00 0.00 0.00 72 1019.6
20260506221817 17 177 1.6 19.3 0.00 0.00 0.00 72 1019.2
20260506220317 17 145 12.9 66.0 0.00 0.00 0.00 71 1019.0
20260506214818 17 175 6.4 33.8 0.00 0.00 0.00 71 1019.3
20260506213318 17 232 3.2 19.3 0.00 0.00 0.00 70 1019.0
20260506211817 18 217 8.0 40.2 0.00 0.00 0.00 70 1019.2